Location: Rostock
(54.0884°N, 12.1234°E)
Time: 21:09:16
(UTC+01:00)

ISS - Pass Details

Date: 09 January 2018
Orbit: 402 x 407 km, 51.6° (Epoch: 23 January)

Event Time Altitude Azimuth Distance (km) Brightness Sun altitude
Exits shadow 07:20:51 - 263° (W) 1,512 -1.4 -9.1°
Reaches altitude 10° 07:20:59 10° 262° (W) 1,470 -1.5 -9.1°
Maximum altitude 07:23:38 22° 209° (SSW) 934 -2.0 -8.8°
Drops below altitude 10° 07:26:16 10° 155° (SSE) 1,466 -0.2 -8.4°
Sets 07:28:37 0° 140° (SE) 2,325 1.4 -8.1°
